Flag for Switzerland Weather past 2 weeks in Uster, Zurich, Switzerland

Now
67 °F

Mild.


Feels Like: 67 °F
Forecast: 60 / 80 °F
Wind: 1 mph from South

Location: Zurich Town / Ville.

Current Time: Aug 31, 2015 at 8:58:01 AM

Latest Report: Aug 31, 2015 at 8:00 AM


Visibility: N/A

Pressure: 30.04 "Hg

Humidity: 70%

Dew point: 57 °F

Location of UsterLocation

Historic Weather in Uster — Graph

°F

Uster temperature yesterday

Maximum temperature yesterday: 89 °F (at 4:00 PM)
Minimum temperature yesterday: 69 °F (at 8:00 AM)
Average temperature yesterday: 78 °F

Past Weeks' High & Low Weather Summary

 TemperatureHumidityPressure
High89 °F (Aug 30, 4:00 PM)98% (Aug 24, 2:00 AM)30.26 "Hg (Aug 24, 2:00 AM)
Low52 °F (Aug 20, 7:00 AM)23% (Aug 30, 3:00 PM)29.70 "Hg (Aug 24, 2:00 PM)
Average65 °F71%30.01 "Hg
* Reported Aug 16 7:00 AM — Aug 31 7:00 AM, Uster, Weather by CustomWeather, © 2015

Note: Actual official high and low records may vary slightly from our data, if they occured in-between our weather recording intervals... More about our weather records

Advertising

Uster weather history for previous 24 hours

 ConditionsComfort  
Time TempWeatherWind HumidityBarometerVisibility
7:00 AM
Mon, Aug 31
67 °FMild.1 mph70%30.03 "HgN/A
6:00 AM68 °FMild.1 mph65%30.03 "HgN/A
5:00 AM68 °FMild.2 mph58%30.03 "HgN/A
4:00 AM67 °FMild.1 mph68%30.02 "HgN/A
3:00 AM69 °FMild.2 mph64%30.00 "HgN/A
2:00 AM69 °FMild.1 mph69%30.01 "HgN/A
1:00 AM72 °FMild.1 mph60%30.03 "HgN/A
12:00 AM71 °FMild.No wind61%30.04 "HgN/A
10:00 PM
Sun, Aug 30
75 °FMild.1 mph54%30.02 "HgN/A
9:00 PM76 °FMild.3 mph46%30.01 "HgN/A
8:00 PM80 °FWarm.3 mph42%29.98 "HgN/A
7:00 PM86 °FPleasantly warm.2 mph32%29.96 "HgN/A
6:00 PM88 °FHot.2 mph27%29.95 "HgN/A
5:00 PM89 °FHot.2 mph24%29.96 "HgN/A
4:00 PM89 °FHot.3 mph24%29.98 "HgN/A
3:00 PM89 °FHot.3 mph23%30.00 "HgN/A
2:00 PM86 °FPassing clouds.3 mph30%30.03 "HgN/A
1:00 PM85 °FPleasantly warm.3 mph33%30.06 "HgN/A
12:00 PM82 °FWarm.3 mph50%30.09 "HgN/A
11:00 AM78 °FWarm.2 mph54%30.11 "HgN/A
10:00 AM75 °FMild.1 mph67%30.12 "HgN/A
9:00 AM72 °FMild.No wind72%30.13 "HgN/A
8:00 AM69 °FMild.1 mph79%30.13 "HgN/A
Weather by CustomWeather, © 2015

See weather overviewHow to use our weather pages